{"data":{"norad_id":60911,"epoch":"2026-05-25T03:41:50.280288Z","epoch_age_seconds":61669,"freshness":"FRESH","line1":"1 60911U 24154J   26145.15405417  .00000335  00000+0  76243-5 0  9995","line2":"2 60911  53.1585 114.3462 0000899  97.1216 262.9904 15.69706950100516","mean_motion":15.6970695,"eccentricity":8.99e-5,"inclination_deg":53.1585,"raan_deg":114.3462,"arg_perigee_deg":97.1216,"mean_anomaly_deg":262.9904,"bstar":7.6243e-6,"rev_number":10051,"period_min":91.736868464525,"perigee_km":359.12974363063,"apogee_km":360.34121310224,"semimajor_km":6737.8724783664,"source":"CELESTRAK","updated_at":"2026-05-25T13:38:19.313756Z"}}